Fort Drum, NY

1:17 AM EDT on April 27, 2018 (GMT -0400)
Wheeler-Sack Army Air Field

Weather History for KGTB - June, 2013

Change the Weather History Date:

Saturday, June 8, 2013

  Actual Average Record
Temperature  
Mean Temperature 58 °F -  
Max Temperature 61 °F 70 °F 89 °F (2007)
Min Temperature 55 °F 50 °F 41 °F (2001)
Degree Days  
Heating Degree Days 7    
Growing Degree Days 8 (Base 50)    
Moisture  
Dew Point 57 °F    
Average Humidity 98    
Maximum Humidity 100    
Minimum Humidity 86    
Precipitation  
Precipitation 0.00 in - - ()
Sea Level Pressure  
Sea Level Pressure 29.91 in    
Wind  
Wind Speed 5 mph (WNW)    
Max Wind Speed 9 mph    
Max Gust Speed -    
Visibility 8 miles    
Events Fog    
Averages and records for this station are not official NWS values.
T = Trace of Precipitation, MM = Missing Value Source: NWS Daily Summary

Daily Weather History Graph

Daily Weather History Graph

Search for Another Location

Airport or City:

Astronomy

Jun. 08, 2013 Rise Set
Actual Time 5:20 AM EDT 8:44 PM EDT
Civil Twilight 4:44 AM EDT 9:20 PM EDT
Nautical Twilight 3:57 AM EDT 10:07 PM EDT
Astronomical Twilight 2:57 AM EDT 11:06 PM EDT
Moon 5:28 AM EDT (6/8) 8:42 PM EDT (6/8)
Length of Visible Light 16h 36m
Length of Day
15h 24m
New Moon, 0% of the Moon is Illuminated
Jun 8
New Moon
Jun 16
First Quarter
Jun 23
Full
Jun 30
Last Quarter
Jul 8
New

Hourly Weather History & Observations

Time (EDT) Temp. Dew Point Humidity Pressure Visibility Wind Dir Wind Speed Gust Speed Precip Events Conditions
12:58 AM 56.8 °F 56.8 °F 100% 29.81 in 10.0 mi ENE 5.8 mph - N/A   Overcast
1:58 AM 56.5 °F 56.5 °F 100% 29.80 in 10.0 mi ENE 4.6 mph - N/A   Overcast
2:12 AM 57.2 °F 57.2 °F 100% 29.80 in 10.0 mi NE 3.5 mph - N/A   Light Drizzle
2:23 AM 55.4 °F 55.4 °F 100% 29.79 in 10.0 mi ENE 4.6 mph - N/A   Overcast
2:58 AM 55.9 °F 55.9 °F 100% 29.79 in 10.0 mi ENE 2.3 mph - 0.00 in   Overcast
3:58 AM 55.4 °F 55.4 °F 100% 29.79 in 10.0 mi North 2.3 mph - N/A   Overcast
4:58 AM 55.4 °F 55.4 °F 100% 29.80 in 10.0 mi North 2.3 mph - N/A   Overcast
5:03 AM 55.4 °F 55.4 °F 100% 29.80 in 10.0 mi North 2.3 mph - N/A   Overcast
5:58 AM 55.0 °F 55.0 °F 100% 29.81 in 6.0 mi North 2.3 mph - N/A   Overcast
6:58 AM 55.4 °F 55.4 °F 100% 29.83 in 1.8 mi NNE 5.8 mph - N/A   Overcast
7:03 AM 55.4 °F 55.4 °F 100% 29.83 in 0.8 mi North 5.8 mph - N/A   Overcast
7:08 AM 55.4 °F 55.4 °F 100% 29.83 in 0.5 mi NNW 3.5 mph - N/A Fog Fog
7:11 AM 55.4 °F 55.4 °F 100% 29.84 in 0.2 mi North 3.5 mph - N/A Fog Fog
7:47 AM 55.4 °F 55.4 °F 100% 29.84 in - NNW 5.8 mph - N/A   Unknown
7:50 AM 55.4 °F 55.4 °F 100% 29.85 in 1.2 mi NW 5.8 mph - N/A   Mist
7:52 AM 55.4 °F 55.4 °F 100% 29.84 in 1.0 mi NW 6.9 mph - N/A   Mist
7:57 AM 55.4 °F 55.4 °F 100% 29.84 in 0.5 mi NW 5.8 mph - N/A Fog Fog
7:58 AM 55.4 °F 55.4 °F 100% 29.84 in 0.5 mi NW 6.9 mph - N/A Fog Fog
8:03 AM 55.4 °F 55.4 °F 100% 29.84 in 0.5 mi NNW 6.9 mph - N/A Fog Fog
8:13 AM 55.4 °F 55.4 °F 100% 29.85 in 0.2 mi NNW 4.6 mph - N/A Fog Fog
8:23 AM 55.4 °F 55.4 °F 100% 29.85 in 0.5 mi NNW 5.8 mph - N/A Fog Fog
8:38 AM 55.4 °F 55.4 °F 100% 29.86 in 1.2 mi NNW 6.9 mph - N/A   Overcast
8:43 AM 55.4 °F 55.4 °F 100% 29.86 in 1.0 mi NW 6.9 mph - N/A   Overcast
8:53 AM 55.4 °F 55.4 °F 100% 29.86 in 2.0 mi NNW 5.8 mph - N/A   Overcast
8:58 AM 55.6 °F 55.6 °F 100% 29.86 in 4.0 mi NW 5.8 mph - N/A   Overcast
9:58 AM 57.0 °F 57.0 °F 100% 29.88 in 10.0 mi NW 4.6 mph - N/A   Overcast
10:03 AM 57.2 °F 57.2 °F 100% 29.88 in 10.0 mi WNW 4.6 mph - N/A   Overcast
10:33 AM 59.0 °F 59.0 °F 100% 29.89 in 10.0 mi West 4.6 mph - N/A   Overcast
10:58 AM 58.1 °F 57.6 °F 98% 29.91 in 10.0 mi WNW 4.6 mph - N/A   Overcast
11:58 AM 58.3 °F 57.6 °F 97% 29.91 in 10.0 mi NW 9.2 mph - N/A   Overcast
12:58 PM 59.2 °F 57.0 °F 93% 29.91 in 10.0 mi NW 2.3 mph - N/A   Overcast
1:18 PM 59.0 °F 57.2 °F 94% 29.92 in 10.0 mi NW 8.1 mph - N/A   Overcast
1:43 PM 59.0 °F 57.2 °F 94% 29.92 in 10.0 mi WNW 5.8 mph - N/A   Overcast
1:53 PM 59.0 °F 57.2 °F 94% 29.93 in 10.0 mi NNW 6.9 mph - N/A   Overcast
1:58 PM 59.0 °F 57.2 °F 94% 29.94 in 10.0 mi NNW 5.8 mph - N/A   Overcast
2:38 PM 60.8 °F 57.2 °F 88% 29.94 in 10.0 mi Variable 4.6 mph - N/A   Overcast
2:53 PM 60.8 °F 57.2 °F 88% 29.94 in 10.0 mi WNW 4.6 mph - N/A   Overcast
2:58 PM 61.2 °F 56.8 °F 86% 29.94 in 10.0 mi Variable 5.8 mph - N/A   Overcast
3:28 PM 60.8 °F 57.2 °F 88% 29.95 in 10.0 mi West 6.9 mph - N/A   Overcast
3:53 PM 59.0 °F 59.0 °F 100% 29.96 in 10.0 mi West 5.8 mph - N/A   Overcast
3:58 PM 59.0 °F 58.3 °F 97% 29.96 in 10.0 mi WSW 5.8 mph - N/A   Overcast
4:48 PM 59.0 °F 59.0 °F 100% 29.97 in 7.0 mi WSW 6.9 mph - N/A   Overcast
4:58 PM 58.5 °F 58.5 °F 100% 29.98 in 9.0 mi WSW 6.9 mph - N/A   Overcast
5:18 PM 57.2 °F 57.2 °F 100% 29.98 in 9.0 mi WSW 6.9 mph - N/A   Overcast
5:19 PM 57.2 °F 57.2 °F 100% 29.98 in 9.0 mi WSW 6.9 mph - N/A   Light Drizzle
5:29 PM 59.0 °F 59.0 °F 100% 29.98 in 10.0 mi WSW 6.9 mph - N/A   Light Drizzle
5:36 PM 59.0 °F 59.0 °F 100% 29.98 in 10.0 mi WSW 9.2 mph - N/A   Overcast
5:58 PM 58.1 °F 58.1 °F 100% 30.00 in 10.0 mi WSW 8.1 mph - 0.00 in   Overcast
6:33 PM 59.0 °F 59.0 °F 100% 29.99 in 10.0 mi WSW 5.8 mph - N/A   Light Drizzle
6:45 PM 57.2 °F 57.2 °F 100% 29.99 in 10.0 mi WSW 4.6 mph - N/A   Overcast
6:58 PM 57.7 °F 57.7 °F 100% 30.00 in 10.0 mi WSW 5.8 mph - 0.00 in   Overcast
7:58 PM 57.2 °F 57.2 °F 100% 30.01 in 10.0 mi WSW 4.6 mph - N/A   Overcast
8:23 PM 57.2 °F 57.2 °F 100% 30.00 in 10.0 mi WSW 5.8 mph - N/A   Overcast
8:58 PM 56.8 °F 56.8 °F 100% 30.01 in 9.0 mi WSW 5.8 mph - N/A   Overcast
9:08 PM 57.2 °F 57.2 °F 100% 30.02 in 10.0 mi WSW 5.8 mph - N/A   Overcast
9:23 PM 57.2 °F 57.2 °F 100% 30.03 in 10.0 mi WSW 8.1 mph - N/A   Overcast
9:58 PM 56.5 °F 56.5 °F 100% 30.06 in 10.0 mi West 4.6 mph - N/A   Overcast
10:18 PM 57.2 °F 57.2 °F 100% 30.05 in 10.0 mi WSW 4.6 mph - N/A   Overcast
10:33 PM 57.2 °F 57.2 °F 100% 30.05 in 10.0 mi Variable 4.6 mph - N/A   Overcast
10:58 PM 56.3 °F 56.1 °F 99% 30.06 in 10.0 mi WSW 4.6 mph - N/A   Overcast
11:58 PM 56.5 °F 55.4 °F 96% 30.04 in 10.0 mi SW 5.8 mph - N/A   Overcast